Weather History for Ocala, FL

Change the Weather History Date:

Saturday, January 19, 2013

  Actual Average Record
Temperature  
Mean Temperature 60 °F -  
Max Temperature 73 °F 66 °F 84 °F (2001)
Min Temperature 48 °F 41 °F 19 °F (1997)
Degree Days  
Heating Degree Days 4    
Growing Degree Days 10 (Base 50)    
Moisture  
Dew Point 44 °F    
Average Humidity 66    
Maximum Humidity 77    
Minimum Humidity 41    
Precipitation  
Precipitation 0.00 in - - ()
Sea Level Pressure  
Sea Level Pressure 30.27 in    
Wind  
Wind Speed 7 mph (NNE)    
Max Wind Speed 10 mph    
Max Gust Speed -    
Visibility 10 miles    
Events      
Averages and records for this station are not official NWS values.
T = Trace of Precipitation, MM = Missing Value Source: NWS Daily Summary

Daily Weather History Graph

Daily Weather History Graph

Search for Another Location

Airport:

Trip Planner

Search our weather history database for the weather conditions in past years. The results will help you decide how hot, cold, wet, or windy it might be!

Date:

Astronomy

Jan. 19, 2013 Rise Set
Actual Time 7:23 AM EST 5:56 PM EST
Civil Twilight 6:57 AM EST 6:22 PM EST
Nautical Twilight 6:28 AM EST 6:51 PM EST
Astronomical Twilight 6:00 AM EST 7:19 PM EST
Moon 12:17 PM EST (1/19) 1:03 AM EST (1/19)
Length of Visible Light 11h 24m
Length of Day
10h 33m
First Quarter, 57% of the Moon is Illuminated
Jan 19
First Quarter
Jan 26
Full
Feb 3
Last Quarter
Feb 10
New
Feb 17
First Quarter

Hourly Weather History & Observations

Time (EST) Temp. Dew Point Humidity Pressure Visibility Wind Dir Wind Speed Gust Speed Precip Events Conditions
12:15 AM 48.2 °F 37.4 °F 66% 30.33 in 10.0 mi NNE 6.9 mph - N/A   Clear
12:35 AM 48.2 °F 37.4 °F 66% 30.32 in 10.0 mi NNE 6.9 mph - N/A   Clear
12:55 AM 48.2 °F 37.4 °F 66% 30.32 in 10.0 mi NNE 8.1 mph - N/A   Clear
1:15 AM 48.2 °F 37.4 °F 66% 30.31 in 10.0 mi NNE 5.8 mph - N/A   Clear
1:35 AM 50.0 °F 37.4 °F 62% 30.31 in 10.0 mi NNE 8.1 mph - N/A   Clear
1:55 AM 50.0 °F 37.4 °F 62% 30.31 in 10.0 mi NNE 8.1 mph - N/A   Clear
2:15 AM 50.0 °F 39.2 °F 66% 30.31 in 10.0 mi NNE 9.2 mph - N/A   Clear
2:35 AM 50.0 °F 39.2 °F 66% 30.30 in 10.0 mi NNE 8.1 mph - N/A   Clear
2:55 AM 50.0 °F 39.2 °F 66% 30.30 in 10.0 mi NNE 6.9 mph - N/A   Clear
3:15 AM 50.0 °F 39.2 °F 66% 30.29 in 10.0 mi NNE 5.8 mph - N/A   Clear
3:35 AM 50.0 °F 39.2 °F 66% 30.29 in 10.0 mi NNE 6.9 mph - N/A   Clear
3:55 AM 50.0 °F 39.2 °F 66% 30.30 in 10.0 mi NNE 6.9 mph - N/A   Clear
4:15 AM 50.0 °F 39.2 °F 66% 30.29 in 10.0 mi NNE 5.8 mph - N/A   Clear
4:35 AM 50.0 °F 39.2 °F 66% 30.29 in 10.0 mi NE 5.8 mph - N/A   Clear
4:55 AM 48.2 °F 39.2 °F 71% 30.30 in 10.0 mi NNE 5.8 mph - N/A   Clear
5:15 AM 48.2 °F 39.2 °F 71% 30.30 in 10.0 mi NNE 6.9 mph - N/A   Clear
5:35 AM 48.2 °F 39.2 °F 71% 30.30 in 10.0 mi NNE 8.1 mph - N/A   Clear
5:55 AM 48.2 °F 39.2 °F 71% 30.30 in 10.0 mi NNE 6.9 mph - N/A   Clear
6:15 AM 48.2 °F 39.2 °F 71% 30.30 in 10.0 mi NNE 6.9 mph - N/A   Clear
6:35 AM 48.2 °F 39.2 °F 71% 30.30 in 10.0 mi NNE 8.1 mph - N/A   Clear
6:47 AM 48.2 °F 39.2 °F 71% 30.31 in 10.0 mi NNE 8.1 mph - N/A   Partly Cloudy
7:50 AM 48.2 °F 39.2 °F 71% 30.32 in 10.0 mi NNE 6.9 mph - N/A   Partly Cloudy
8:50 AM 51.8 °F 39.2 °F 62% 30.34 in 10.0 mi NNE 5.8 mph - N/A   Scattered Clouds
9:50 AM 55.4 °F 42.8 °F 63% 30.35 in 10.0 mi NNE 9.2 mph - N/A   Partly Cloudy
10:50 AM 62.6 °F 44.6 °F 52% 30.33 in 10.0 mi NNE 9.2 mph - N/A   Partly Cloudy
11:50 AM 66.2 °F 46.4 °F 49% 30.31 in 10.0 mi NNE 6.9 mph - N/A   Partly Cloudy
12:50 PM 69.8 °F 48.2 °F 46% 30.26 in 10.0 mi NE 10.4 mph - N/A   Partly Cloudy
1:50 PM 73.4 °F 53.6 °F 50% 30.21 in 10.0 mi NNE 6.9 mph - N/A   Partly Cloudy
2:50 PM 73.4 °F 48.2 °F 41% 30.19 in 10.0 mi NE 5.8 mph - N/A   Scattered Clouds
3:50 PM 73.4 °F 53.6 °F 50% 30.18 in 10.0 mi ENE 6.9 mph - N/A   Scattered Clouds
4:50 PM 71.6 °F 53.6 °F 53% 30.19 in 10.0 mi ENE 6.9 mph - N/A   Scattered Clouds
5:50 PM 68.0 °F 55.4 °F 64% 30.20 in 10.0 mi NE 6.9 mph - N/A   Scattered Clouds
6:50 PM 64.4 °F 55.4 °F 73% 30.22 in 10.0 mi NE 6.9 mph - N/A   Scattered Clouds
7:55 PM 60.8 °F 48.2 °F 63% 30.22 in 10.0 mi NE 5.8 mph - N/A   Mostly Cloudy
8:15 PM 60.8 °F 48.2 °F 63% 30.22 in 10.0 mi NNE 5.8 mph - N/A   Overcast
8:35 PM 59.0 °F 48.2 °F 67% 30.23 in 10.0 mi NE 5.8 mph - N/A   Mostly Cloudy
8:55 PM 59.0 °F 48.2 °F 67% 30.23 in 10.0 mi NNE 3.5 mph - N/A   Mostly Cloudy
9:15 PM 57.2 °F 48.2 °F 72% 30.22 in 10.0 mi NE 6.9 mph - N/A   Mostly Cloudy
9:35 PM 57.2 °F 48.2 °F 72% 30.22 in 10.0 mi NNE 4.6 mph - N/A   Overcast
9:55 PM 57.2 °F 50.0 °F 77% 30.22 in 10.0 mi NNE 5.8 mph - N/A   Overcast
10:15 PM 57.2 °F 50.0 °F 77% 30.22 in 10.0 mi NNE 5.8 mph - N/A   Overcast
10:35 PM 57.2 °F 50.0 °F 77% 30.22 in 10.0 mi NNE 4.6 mph - N/A   Overcast
10:55 PM 57.2 °F 50.0 °F 77% 30.21 in 10.0 mi NNE 6.9 mph - N/A   Overcast
11:15 PM 57.2 °F 50.0 °F 77% 30.21 in 10.0 mi NNE 6.9 mph - N/A   Overcast
11:35 PM 57.2 °F 50.0 °F 77% 30.21 in 10.0 mi NNE 4.6 mph - N/A   Overcast
11:55 PM 57.2 °F 50.0 °F 77% 30.21 in 10.0 mi NNE 5.8 mph - N/A   Overcast